Weather History for KCWF - October, 2012

Change the Weather History Date:

Thursday, October 25, 2012

  Actual Average Record
Temperature  
Mean Temperature 74 °F -  
Max Temperature 82 °F 77 °F 89 °F (2004)
Min Temperature 66 °F 60 °F 39 °F (2005)
Cooling Degree Days 9    
Growing Degree Days 24 (Base 50)    
Moisture  
Dew Point 67 °F    
Average Humidity 86    
Maximum Humidity 94    
Minimum Humidity 54    
Precipitation  
Precipitation 0.00 in - - ()
Sea Level Pressure  
Sea Level Pressure 29.94 in    
Wind  
Wind Speed 7 mph (ESE)    
Max Wind Speed 10 mph    
Max Gust Speed 18 mph    
Visibility 6 miles    
Events Fog    
Averages and records for this station are not official NWS values.
T = Trace of Precipitation, MM = Missing Value Source: NWS Daily Summary

Daily Weather History Graph

Daily Weather History Graph

Search for Another Location

Airport or City:

Trip Planner

Search our weather history database for the weather conditions in past years. The results will help you decide how hot, cold, wet, or windy it might be!

Date:

Astronomy

Oct. 25, 2012 Rise Set
Actual Time 7:21 AM CDT 6:30 PM CDT
Civil Twilight 6:57 AM CDT 6:55 PM CDT
Nautical Twilight 6:29 AM CDT 7:23 PM CDT
Astronomical Twilight 6:01 AM CDT 7:51 PM CDT
Moon 4:04 PM CDT (10/25) 3:34 AM CDT (10/25)
Length of Visible Light 11h 57m
Length of Day
11h 08m
Waxing Gibbous, 84% of the Moon is Illuminated
Oct 25
Waxing Gibbous
Oct 29
Full
Nov 6
Last Quarter
Nov 13
New
Nov 20
First Quarter

Hourly Weather History & Observations

Time (CDT) Temp. Heat Index Dew Point Humidity Pressure Visibility Wind Dir Wind Speed Gust Speed Precip Events Conditions
12:15 AM 70.9 °F - 68.0 °F 91% 29.96 in 10.0 mi ESE 10.4 mph - N/A   Clear
12:35 AM 70.2 °F - 67.5 °F 91% 29.95 in 7.0 mi ESE 9.2 mph - N/A   Clear
12:55 AM 69.3 °F - 67.1 °F 93% 29.94 in 7.0 mi East 9.2 mph - N/A   Clear
1:15 AM 69.3 °F - 67.1 °F 93% 29.94 in 7.0 mi East 10.4 mph - N/A   Clear
1:35 AM 69.4 °F - 67.3 °F 93% 29.94 in 7.0 mi East 9.2 mph - N/A   Clear
1:55 AM 69.3 °F - 67.1 °F 93% 29.94 in 7.0 mi East 6.9 mph - N/A   Clear
2:35 AM 69.1 °F - 67.1 °F 93% 29.94 in 5.0 mi East 4.6 mph - N/A   Clear
2:55 AM 68.7 °F - 66.6 °F 93% 29.94 in 4.0 mi East 3.5 mph - N/A   Clear
3:15 AM 68.0 °F - 65.7 °F 92% 29.94 in 2.5 mi East 3.5 mph - N/A   Clear
3:35 AM 68.0 °F - 66.2 °F 94% 29.93 in 3.0 mi East 5.8 mph - N/A   Clear
3:55 AM 68.9 °F - 66.7 °F 93% 29.93 in 4.0 mi East 3.5 mph - N/A   Clear
4:15 AM 68.4 °F - 66.4 °F 93% 29.92 in 2.5 mi East 4.6 mph - N/A   Mist
4:35 AM 68.9 °F - 66.7 °F 93% 29.92 in 3.0 mi ESE 5.8 mph - N/A   Mist
4:55 AM 68.4 °F - 66.4 °F 93% 29.92 in 2.5 mi ESE 4.6 mph - N/A   Mist
5:15 AM 68.0 °F - 66.2 °F 94% 29.92 in 1.8 mi East 4.6 mph - N/A   Mist
5:35 AM 68.0 °F - 66.2 °F 94% 29.91 in 1.8 mi East 4.6 mph - N/A   Mist
5:55 AM 68.0 °F - 66.2 °F 94% 29.92 in 2.5 mi East 4.6 mph - N/A   Mist
6:00 AM 68.0 °F - 66.2 °F 94% 29.92 in 3.0 mi East 4.6 mph - N/A   Clear
6:50 AM 66.2 °F - 64.4 °F 94% 29.92 in 2.0 mi East 4.6 mph - N/A   Scattered Clouds
7:10 AM 66.2 °F - 64.4 °F 94% 29.93 in 0.2 mi ENE 3.5 mph - N/A Fog Fog
8:15 AM 71.6 °F - 69.8 °F 94% 29.95 in 2.5 mi East 3.5 mph - N/A   Scattered Clouds
8:50 AM 71.6 °F - 69.8 °F 94% 29.96 in 4.0 mi East 5.8 mph - N/A   Scattered Clouds
9:50 AM 75.2 °F - 71.6 °F 89% 29.97 in 10.0 mi SE 9.2 mph - N/A   Scattered Clouds
11:45 AM 82.4 °F 84.6 °F 66.2 °F 58% 29.98 in 10.0 mi SSE 10.4 mph 18.4 mph N/A   Mostly Cloudy
12:50 PM 82.4 °F 84.6 °F 66.2 °F 58% 29.95 in 10.0 mi SE 10.4 mph - N/A   Mostly Cloudy
1:45 PM 82.4 °F 83.9 °F 64.4 °F 54% 29.93 in 10.0 mi SE 10.4 mph - N/A   Mostly Cloudy
2:50 PM 82.4 °F 83.9 °F 64.4 °F 54% 29.91 in 10.0 mi SE 5.8 mph - N/A   Overcast
3:52 PM 78.8 °F - 68.0 °F 69% 29.92 in 10.0 mi West 8.1 mph - N/A   Overcast
4:50 PM 78.8 °F - 66.2 °F 65% 29.92 in 10.0 mi Calm Calm - N/A   Mostly Cloudy
5:50 PM 78.8 °F - 66.2 °F 65% 29.92 in 10.0 mi SSW 5.8 mph - N/A   Overcast
7:50 PM 73.4 °F - 69.8 °F 88% 29.93 in 10.0 mi SSE 4.6 mph - N/A   Overcast
9:50 PM 71.6 °F - 66.2 °F 83% 29.94 in 10.0 mi SSE 5.8 mph - N/A   Clear
10:15 PM 70.3 °F - 67.3 °F 90% 29.94 in 10.0 mi SSE 4.6 mph - N/A   Clear
10:35 PM 69.8 °F - 66.9 °F 91% 29.95 in 10.0 mi SSE 3.5 mph - N/A   Clear
10:55 PM 69.6 °F - 67.1 °F 92% 29.95 in 10.0 mi SE 5.8 mph - N/A   Clear
11:15 PM 69.3 °F - 66.9 °F 92% 29.95 in 10.0 mi SE 5.8 mph - N/A   Clear
11:55 PM 68.7 °F - 66.2 °F 92% 29.95 in 7.0 mi Calm Calm - N/A   Clear